Tracking 30166 objects as of 22-Jan-2025
HD Live streaming from Space Station
objects crossing your sky now

STARLINK-11469

Track STARLINK-11469 now!
10-day predictions
STARLINK-11469 is classified as:


NORAD ID: 62227
Int'l Code: 2024-231K
Perigee: 365.8 km
Apogee: 367.9 km
Inclination: 53.2 °
Period: 91.7 minutes
Semi major axis: 6737 km
RCS: Unknown
Launch date: December 5, 2024
Source: United States (US)
Launch site: AIR FORCE WESTERN TEST RANGE (AFWTR)
Your satellite tracking list
Your tracking list is empty




NASA's NSSDC Master Catalog

Two Line Element Set (TLE):
1 62227U 24231K   25021.56783002 -.00001704  00000-0 -92099-5 0  9990
2 62227  53.1581 332.8410 0001564 105.7407 254.3784 15.69700131  8638
Source of the keplerian elements: AFSPC